Time,TemperatureF,DewpointF,PressureIn,WindDirection,WindDirectionDegrees,WindSpeedMPH,WindSpeedGustMPH,Humidity,HourlyPrecipIn,Conditions,Clouds,dailyrainin,SoftwareType,DateUTC
2013-07-13 00:00:00,63.0,61.2,29.94,SSW,198,0.0,0.0,94,0.14,,,0.00,Wunderground v.1.15,2013-07-13 04:00:00,
2013-07-13 00:05:00,62.6,61.1,29.95,SSW,198,0.0,0.0,95,0.08,,,0.00,Wunderground v.1.15,2013-07-13 04:05:00,
2013-07-13 00:10:00,62.5,61.3,29.95,SSW,198,0.0,0.0,96,0.05,,,0.00,Wunderground v.1.15,2013-07-13 04:10:00,
2013-07-13 00:15:00,62.5,61.3,29.95,SSW,198,0.0,0.0,96,0.04,,,0.00,Wunderground v.1.15,2013-07-13 04:15:00,
2013-07-13 00:25:00,62.7,61.8,29.95,SSW,198,0.0,0.0,97,0.00,,,0.00,Wunderground v.1.15,2013-07-13 04:25:00,
2013-07-13 00:35:00,62.7,62.1,29.95,SSW,198,0.0,0.0,98,0.00,,,0.00,Wunderground v.1.15,2013-07-13 04:35:00,
2013-07-13 00:40:00,62.7,62.1,29.95,SSW,198,0.0,0.0,98,0.00,,,0.00,Wunderground v.1.15,2013-07-13 04:40:00,
2013-07-13 00:50:00,62.4,61.5,29.96,SSW,198,0.0,0.0,97,0.00,,,0.00,Wunderground v.1.15,2013-07-13 04:50:00,
2013-07-13 00:55:00,62.2,61.3,29.95,SSW,198,0.0,0.0,97,0.00,,,0.00,Wunderground v.1.15,2013-07-13 04:55:00,
2013-07-13 01:00:00,62.0,61.1,29.95,SSW,198,0.0,0.0,97,0.00,,,0.00,Wunderground v.1.15,2013-07-13 05:00:00,
2013-07-13 01:05:00,61.8,60.9,29.96,SSW,198,0.0,0.0,97,0.00,,,0.00,Wunderground v.1.15,2013-07-13 05:05:00,
2013-07-13 01:15:00,61.4,60.8,29.96,SSW,198,0.0,0.0,98,0.00,,,0.00,Wunderground v.1.15,2013-07-13 05:15:00,
2013-07-13 01:20:00,61.5,60.9,29.95,SSW,198,0.0,0.0,98,0.00,,,0.00,Wunderground v.1.15,2013-07-13 05:20:00,
2013-07-13 01:30:00,61.7,61.1,29.95,SSW,198,0.0,0.0,98,0.00,,,0.00,Wunderground v.1.15,2013-07-13 05:30:00,
2013-07-13 01:35:00,61.7,61.1,29.96,SSW,198,0.0,0.0,98,0.00,,,0.00,Wunderground v.1.15,2013-07-13 05:35:00,
2013-07-13 01:45:00,62.0,61.4,29.95,SSW,198,0.0,0.0,98,0.00,,,0.00,Wunderground v.1.15,2013-07-13 05:45:00,
2013-07-13 01:50:00,61.8,61.2,29.95,SSW,198,0.0,0.0,98,0.00,,,0.00,Wunderground v.1.15,2013-07-13 05:50:00,
2013-07-13 02:00:00,61.0,60.4,29.95,SSW,198,0.0,0.0,98,0.00,,,0.00,Wunderground v.1.15,2013-07-13 06:00:00,
2013-07-13 02:05:00,60.9,60.3,29.95,SSW,198,0.0,0.0,98,0.00,,,0.00,Wunderground v.1.15,2013-07-13 06:05:00,
2013-07-13 02:15:00,61.0,60.4,29.96,SSW,198,0.0,0.0,98,0.00,,,0.00,Wunderground v.1.15,2013-07-13 06:15:00,
2013-07-13 02:20:00,61.1,60.5,29.96,SSW,198,0.0,0.0,98,0.00,,,0.00,Wunderground v.1.15,2013-07-13 06:20:00,
2013-07-13 02:30:00,61.1,60.5,29.95,SSW,198,0.0,0.0,98,0.00,,,0.00,Wunderground v.1.15,2013-07-13 06:30:00,
2013-07-13 02:35:00,61.0,60.4,29.95,SSW,198,0.0,0.0,98,0.00,,,0.00,Wunderground v.1.15,2013-07-13 06:35:00,
2013-07-13 02:45:00,60.9,60.3,29.96,SSW,198,0.0,0.0,98,0.00,,,0.00,Wunderground v.1.15,2013-07-13 06:45:00,
2013-07-13 02:55:00,60.9,60.3,29.95,SSW,198,0.0,0.0,98,0.00,,,0.00,Wunderground v.1.15,2013-07-13 06:55:00,
2013-07-13 03:05:00,60.9,60.3,29.95,SSW,198,0.0,0.0,98,0.00,,,0.00,Wunderground v.1.15,2013-07-13 07:05:00,
2013-07-13 03:15:00,60.9,60.3,29.95,SW,220,0.0,0.0,98,0.00,,,0.00,Wunderground v.1.15,2013-07-13 07:15:00,
2013-07-13 03:20:00,60.9,60.3,29.95,SW,226,0.0,0.0,98,0.00,,,0.00,Wunderground v.1.15,2013-07-13 07:20:00,
2013-07-13 03:30:00,61.0,60.7,29.95,SW,231,0.0,0.0,99,0.00,,,0.00,Wunderground v.1.15,2013-07-13 07:30:00,
2013-07-13 03:35:00,61.0,60.4,29.94,SSW,212,0.0,0.0,98,0.00,,,0.00,Wunderground v.1.15,2013-07-13 07:35:00,
2013-07-13 03:40:00,60.9,60.3,29.94,SSW,212,0.0,0.0,98,0.00,,,0.00,Wunderground v.1.15,2013-07-13 07:40:00,
2013-07-13 03:50:00,60.9,60.6,29.93,SSW,212,0.0,0.0,99,0.00,,,0.00,Wunderground v.1.15,2013-07-13 07:50:00,
2013-07-13 03:55:00,61.0,60.7,29.93,SSW,212,0.0,0.0,99,0.00,,,0.00,Wunderground v.1.15,2013-07-13 07:55:00,
2013-07-13 04:05:00,60.9,60.3,29.93,SSW,213,0.0,0.0,98,0.00,,,0.00,Wunderground v.1.15,2013-07-13 08:05:00,
2013-07-13 04:15:00,60.8,60.2,29.94,SSW,213,0.0,0.0,98,0.00,,,0.00,Wunderground v.1.15,2013-07-13 08:15:00,
2013-07-13 04:25:00,60.9,60.3,29.94,SSW,213,0.0,0.0,98,0.00,,,0.00,Wunderground v.1.15,2013-07-13 08:25:00,
2013-07-13 04:30:00,60.9,60.3,29.94,SSW,213,0.0,0.0,98,0.00,,,0.00,Wunderground v.1.15,2013-07-13 08:30:00,
2013-07-13 04:40:00,60.9,60.3,29.93,SSW,213,0.0,0.0,98,0.00,,,0.00,Wunderground v.1.15,2013-07-13 08:40:00,
2013-07-13 04:50:00,60.9,60.3,29.93,WSW,242,0.0,0.0,98,0.00,,,0.00,Wunderground v.1.15,2013-07-13 08:50:00,
2013-07-13 04:55:00,60.9,60.6,29.93,WSW,243,0.0,0.0,99,0.00,,,0.00,Wunderground v.1.15,2013-07-13 08:55:00,
2013-07-13 05:05:00,61.1,60.8,29.93,SW,231,0.0,0.0,99,0.00,,,0.00,Wunderground v.1.15,2013-07-13 09:05:00,
2013-07-13 05:15:00,61.1,60.8,29.94,SW,231,0.0,0.0,99,0.00,,,0.00,Wunderground v.1.15,2013-07-13 09:15:00,
2013-07-13 05:20:00,61.0,60.7,29.95,SW,231,0.0,0.0,99,0.00,,,0.00,Wunderground v.1.15,2013-07-13 09:20:00,
2013-07-13 05:30:00,61.0,60.7,29.95,SW,231,0.0,0.0,99,0.00,,,0.00,Wunderground v.1.15,2013-07-13 09:30:00,
2013-07-13 05:40:00,61.1,60.8,29.95,SW,231,0.0,0.0,99,0.00,,,0.00,Wunderground v.1.15,2013-07-13 09:40:00,
2013-07-13 05:45:00,61.2,60.9,29.95,SW,231,0.0,0.0,99,0.00,,,0.00,Wunderground v.1.15,2013-07-13 09:45:00,
2013-07-13 05:55:00,61.3,61.0,29.96,SW,231,0.0,0.0,99,0.00,,,0.00,Wunderground v.1.15,2013-07-13 09:55:00,
2013-07-13 06:05:00,61.5,61.2,29.97,SW,225,0.0,0.0,99,0.00,,,0.00,Wunderground v.1.15,2013-07-13 10:05:00,
2013-07-13 06:15:00,61.5,61.2,29.98,SW,225,0.0,0.0,99,0.00,,,0.00,Wunderground v.1.15,2013-07-13 10:15:00,
2013-07-13 06:25:00,61.5,61.2,29.98,SSW,207,0.0,0.0,99,0.00,,,0.00,Wunderground v.1.15,2013-07-13 10:25:00,
2013-07-13 06:35:00,61.4,61.1,29.98,SSW,207,0.0,0.0,99,0.00,,,0.00,Wunderground v.1.15,2013-07-13 10:35:00,
2013-07-13 06:40:00,61.5,61.2,29.98,South,175,0.0,0.0,99,0.00,,,0.00,Wunderground v.1.15,2013-07-13 10:40:00,
2013-07-13 06:50:00,61.5,61.2,29.98,South,175,0.0,0.0,99,0.00,,,0.00,Wunderground v.1.15,2013-07-13 10:50:00,
2013-07-13 07:00:00,61.6,61.3,29.99,South,177,0.0,0.0,99,0.00,,,0.00,Wunderground v.1.15,2013-07-13 11:00:00,
2013-07-13 07:05:00,61.7,61.4,29.99,South,177,0.0,0.0,99,0.00,,,0.00,Wunderground v.1.15,2013-07-13 11:05:00,
2013-07-13 07:15:00,61.8,61.5,29.99,South,178,0.0,0.0,99,0.00,,,0.00,Wunderground v.1.15,2013-07-13 11:15:00,
2013-07-13 07:20:00,61.9,61.9,29.99,South,178,0.0,0.0,100,0.00,,,0.00,Wunderground v.1.15,2013-07-13 11:20:00,
2013-07-13 07:30:00,62.0,62.0,29.99,South,178,0.0,0.0,100,0.00,,,0.00,Wunderground v.1.15,2013-07-13 11:30:00,
2013-07-13 07:35:00,62.1,62.1,29.99,South,178,0.0,0.0,100,0.00,,,0.00,Wunderground v.1.15,2013-07-13 11:35:00,
2013-07-13 07:40:00,62.1,61.8,29.99,South,178,0.0,0.0,99,0.00,,,0.00,Wunderground v.1.15,2013-07-13 11:40:00,
2013-07-13 07:50:00,62.2,61.9,29.99,South,178,0.0,0.0,99,0.00,,,0.00,Wunderground v.1.15,2013-07-13 11:50:00,
2013-07-13 07:55:00,62.3,62.0,30.00,South,178,0.0,0.0,99,0.00,,,0.00,Wunderground v.1.15,2013-07-13 11:55:00,
2013-07-13 08:05:00,62.5,62.5,30.00,South,178,0.0,0.0,100,0.00,,,0.00,Wunderground v.1.15,2013-07-13 12:05:00,
2013-07-13 08:15:00,62.6,62.6,30.00,South,178,0.0,0.0,100,0.00,,,0.00,Wunderground v.1.15,2013-07-13 12:15:00,
2013-07-13 08:20:00,62.6,62.6,30.00,South,178,0.0,0.0,100,0.00,,,0.00,Wunderground v.1.15,2013-07-13 12:20:00,
2013-07-13 08:30:00,62.7,62.7,30.00,South,178,0.0,0.0,100,0.00,,,0.00,Wunderground v.1.15,2013-07-13 12:30:00,
2013-07-13 08:35:00,62.9,62.9,30.00,South,178,0.0,0.0,100,0.00,,,0.00,Wunderground v.1.15,2013-07-13 12:35:00,
2013-07-13 08:40:00,62.9,62.6,30.01,South,178,0.0,0.0,99,0.00,,,0.00,Wunderground v.1.15,2013-07-13 12:40:00,
2013-07-13 08:50:00,62.8,62.5,30.01,South,178,0.0,0.0,99,0.00,,,0.00,Wunderground v.1.15,2013-07-13 12:50:00,
2013-07-13 09:00:00,63.0,62.7,30.02,South,178,0.0,0.0,99,0.00,,,0.00,Wunderground v.1.15,2013-07-13 13:00:00,
2013-07-13 09:05:00,62.8,62.5,30.01,South,178,0.0,0.0,99,0.00,,,0.00,Wunderground v.1.15,2013-07-13 13:05:00,
2013-07-13 09:15:00,63.0,62.7,30.02,South,178,0.0,0.0,99,0.00,,,0.00,Wunderground v.1.15,2013-07-13 13:15:00,
2013-07-13 09:20:00,63.6,63.6,30.02,South,178,0.0,0.0,100,0.00,,,0.00,Wunderground v.1.15,2013-07-13 13:20:00,
2013-07-13 09:30:00,63.8,63.8,30.02,SW,225,0.0,0.0,100,0.00,,,0.00,Wunderground v.1.15,2013-07-13 13:30:00,
2013-07-13 09:40:00,64.4,64.4,30.02,SW,225,0.0,0.0,100,0.00,,,0.00,Wunderground v.1.15,2013-07-13 13:40:00,
2013-07-13 09:45:00,64.5,64.2,30.02,SW,219,0.0,0.0,99,0.00,,,0.00,Wunderground v.1.15,2013-07-13 13:45:00,
2013-07-13 09:55:00,65.2,64.9,30.02,WSW,240,0.0,0.0,99,0.00,,,0.00,Wunderground v.1.15,2013-07-13 13:55:00,
2013-07-13 10:00:00,65.4,65.1,30.02,SSW,192,0.0,0.0,99,0.00,,,0.00,Wunderground v.1.15,2013-07-13 14:00:00,
2013-07-13 10:05:00,65.5,65.2,30.02,NW,325,0.0,0.0,99,0.00,,,0.00,Wunderground v.1.15,2013-07-13 14:05:00,
2013-07-13 10:15:00,66.2,65.6,30.02,WSW,246,0.0,5.0,98,0.00,,,0.00,Wunderground v.1.15,2013-07-13 14:15:00,
2013-07-13 10:20:00,66.7,65.8,30.02,South,173,1.0,1.0,97,0.00,,,0.00,Wunderground v.1.15,2013-07-13 14:20:00,
2013-07-13 10:30:00,67.4,65.9,30.03,NNW,330,0.0,1.0,95,0.00,,,0.00,Wunderground v.1.15,2013-07-13 14:30:00,
2013-07-13 10:35:00,67.4,65.6,30.03,South,189,0.0,1.0,94,0.00,,,0.00,Wunderground v.1.15,2013-07-13 14:35:00,
2013-07-13 10:45:00,67.7,65.9,30.03,SW,216,0.0,0.0,94,0.00,,,0.00,Wunderground v.1.15,2013-07-13 14:45:00,
2013-07-13 10:50:00,67.9,66.1,30.03,SW,234,0.0,0.0,94,0.00,,,0.00,Wunderground v.1.15,2013-07-13 14:50:00,
2013-07-13 11:00:00,69.1,67.3,30.03,SSW,194,0.0,0.0,94,0.00,,,0.00,Wunderground v.1.15,2013-07-13 15:00:00,
2013-07-13 11:05:00,70.1,68.3,30.04,WNW,289,0.0,0.0,94,0.00,,,0.00,Wunderground v.1.15,2013-07-13 15:05:00,
2013-07-13 11:15:00,69.9,67.5,30.04,SW,234,0.0,0.0,92,0.00,,,0.00,Wunderground v.1.15,2013-07-13 15:15:00,
2013-07-13 11:25:00,69.1,66.4,30.04,SW,236,0.0,0.0,91,0.00,,,0.00,Wunderground v.1.15,2013-07-13 15:25:00,
2013-07-13 11:30:00,69.8,67.4,30.05,West,263,0.0,0.0,92,0.00,,,0.00,Wunderground v.1.15,2013-07-13 15:30:00,
2013-07-13 11:40:00,70.4,67.6,30.05,West,278,1.0,1.0,91,0.00,,,0.00,Wunderground v.1.15,2013-07-13 15:40:00,
2013-07-13 11:50:00,71.6,70.1,30.05,NW,305,0.0,0.0,95,0.00,,,0.00,Wunderground v.1.15,2013-07-13 15:50:00,
2013-07-13 11:55:00,71.9,67.8,30.05,East,101,0.0,0.0,87,0.00,,,0.00,Wunderground v.1.15,2013-07-13 15:55:00,
2013-07-13 12:05:00,70.4,67.3,30.05,West,275,0.0,1.0,90,0.00,,,0.00,Wunderground v.1.15,2013-07-13 16:05:00,
2013-07-13 12:14:00,70.0,66.6,30.05,NNW,338,0.0,6.0,89,0.00,,,0.00,Wunderground v.1.15,2013-07-13 16:14:00,
2013-07-13 12:19:00,70.4,67.6,30.05,SW,219,0.0,0.0,91,0.00,,,0.00,Wunderground v.1.15,2013-07-13 16:19:00,
2013-07-13 12:25:00,71.2,67.1,30.04,WNW,301,1.0,1.0,87,0.00,,,0.00,Wunderground v.1.15,2013-07-13 16:25:00,
2013-07-13 12:35:00,72.7,69.6,30.05,SSW,210,0.0,0.0,90,0.00,,,0.00,Wunderground v.1.15,2013-07-13 16:35:00,
2013-07-13 12:44:00,72.5,68.4,30.05,NNW,336,0.0,1.0,87,0.00,,,0.00,Wunderground v.1.15,2013-07-13 16:44:00,
2013-07-13 12:50:00,71.8,67.4,30.05,West,260,0.0,0.0,86,0.00,,,0.00,Wunderground v.1.15,2013-07-13 16:50:00,
2013-07-13 12:59:00,71.0,67.3,30.05,SW,234,2.0,2.0,88,0.00,,,0.00,Wunderground v.1.15,2013-07-13 16:59:00,
2013-07-13 13:05:00,71.3,68.2,30.05,SW,236,1.0,2.0,90,0.00,,,0.00,Wunderground v.1.15,2013-07-13 17:05:00,
2013-07-13 13:14:00,72.8,69.4,30.04,South,191,0.0,0.0,89,0.00,,,0.00,Wunderground v.1.15,2013-07-13 17:14:00,
2013-07-13 13:20:00,72.7,67.9,30.05,SW,223,0.0,0.0,85,0.00,,,0.00,Wunderground v.1.15,2013-07-13 17:20:00,
2013-07-13 13:29:00,72.2,67.4,30.05,SSW,209,1.0,1.0,85,0.00,,,0.00,Wunderground v.1.15,2013-07-13 17:29:00,
2013-07-13 13:39:00,72.0,68.2,30.04,WSW,255,0.0,0.0,88,0.00,,,0.00,Wunderground v.1.15,2013-07-13 17:39:00,
2013-07-13 13:44:00,72.0,68.2,30.04,WSW,255,0.0,0.0,88,0.00,,,0.00,Wunderground v.1.15,2013-07-13 17:44:00,
2013-07-13 13:54:00,72.1,68.0,30.03,SSW,208,0.0,0.0,87,0.00,,,0.00,Wunderground v.1.15,2013-07-13 17:54:00,
2013-07-13 14:05:00,72.7,67.9,30.03,WSW,239,0.0,0.0,85,0.00,,,0.00,Wunderground v.1.15,2013-07-13 18:05:00,
2013-07-13 14:14:00,74.4,68.9,30.04,SW,233,0.0,0.0,83,0.00,,,0.00,Wunderground v.1.15,2013-07-13 18:14:00,
2013-07-13 14:19:00,74.2,68.3,30.04,SSW,212,0.0,0.0,82,0.00,,,0.00,Wunderground v.1.15,2013-07-13 18:19:00,
2013-07-13 14:29:00,73.1,66.9,30.04,WNW,296,0.0,0.0,81,0.00,,,0.00,Wunderground v.1.15,2013-07-13 18:29:00,
2013-07-13 14:39:00,72.1,67.3,30.04,WSW,248,0.0,0.0,85,0.00,,,0.00,Wunderground v.1.15,2013-07-13 18:39:00,
2013-07-13 14:49:00,73.3,69.5,30.04,NW,311,0.0,2.0,88,0.00,,,0.00,Wunderground v.1.15,2013-07-13 18:49:00,
2013-07-13 14:55:00,74.4,70.6,30.03,SW,227,0.0,2.0,88,0.00,,,0.00,Wunderground v.1.15,2013-07-13 18:55:00,
2013-07-13 15:05:00,73.9,68.1,30.03,SW,224,0.0,0.0,82,0.00,,,0.00,Wunderground v.1.15,2013-07-13 19:05:00,
2013-07-13 15:14:00,73.0,67.2,30.03,West,274,0.0,0.0,82,0.00,,,0.00,Wunderground v.1.15,2013-07-13 19:14:00,
2013-07-13 15:19:00,73.4,68.6,30.03,West,271,0.0,0.0,85,0.00,,,0.00,Wunderground v.1.15,2013-07-13 19:19:00,
2013-07-13 15:29:00,75.3,70.5,30.03,NNW,330,0.0,0.0,85,0.00,,,0.00,Wunderground v.1.15,2013-07-13 19:29:00,
2013-07-13 15:34:00,75.4,69.9,30.03,North,355,0.0,0.0,83,0.00,,,0.00,Wunderground v.1.15,2013-07-13 19:34:00,
2013-07-13 15:44:00,75.4,70.6,30.02,SSE,150,0.0,0.0,85,0.00,,,0.00,Wunderground v.1.15,2013-07-13 19:44:00,
2013-07-13 15:49:00,75.7,69.5,30.02,NNW,346,0.0,6.0,81,0.00,,,0.00,Wunderground v.1.15,2013-07-13 19:49:00,
2013-07-13 15:59:00,74.8,68.6,30.02,WSW,249,0.0,0.0,81,0.00,,,0.00,Wunderground v.1.15,2013-07-13 19:59:00,
2013-07-13 16:05:00,74.0,69.2,30.02,NW,311,0.0,0.0,85,0.00,,,0.00,Wunderground v.1.15,2013-07-13 20:05:00,
2013-07-13 16:14:00,73.1,68.3,30.02,NNW,328,0.0,0.0,85,0.00,,,0.00,Wunderground v.1.15,2013-07-13 20:14:00,
2013-07-13 16:24:00,72.1,67.7,30.02,West,260,0.0,0.0,86,0.00,,,0.00,Wunderground v.1.15,2013-07-13 20:24:00,
2013-07-13 16:34:00,71.6,67.5,30.02,West,280,0.0,0.0,87,0.00,,,0.00,Wunderground v.1.15,2013-07-13 20:34:00,
2013-07-13 16:39:00,71.5,67.4,30.03,SSW,207,0.0,0.0,87,0.00,,,0.00,Wunderground v.1.15,2013-07-13 20:39:00,
2013-07-13 16:49:00,71.6,67.9,30.02,WSW,246,0.0,0.0,88,0.00,,,0.00,Wunderground v.1.15,2013-07-13 20:49:00,
2013-07-13 16:59:00,71.7,68.0,30.02,West,281,0.0,0.0,88,0.00,,,0.00,Wunderground v.1.15,2013-07-13 20:59:00,
2013-07-13 17:04:00,71.7,68.0,30.02,West,281,0.0,0.0,88,0.00,,,0.00,Wunderground v.1.15,2013-07-13 21:04:00,
2013-07-13 17:14:00,71.4,67.7,30.03,WNW,303,0.0,0.0,88,0.00,,,0.00,Wunderground v.1.15,2013-07-13 21:14:00,
2013-07-13 17:24:00,71.5,68.4,30.03,NW,306,0.0,0.0,90,0.00,,,0.00,Wunderground v.1.15,2013-07-13 21:24:00,
2013-07-13 17:34:00,71.3,67.9,30.03,WNW,303,0.0,0.0,89,0.00,,,0.00,Wunderground v.1.15,2013-07-13 21:34:00,
2013-07-13 17:39:00,71.5,68.1,30.03,SSW,205,0.0,0.0,89,0.00,,,0.00,Wunderground v.1.15,2013-07-13 21:39:00,
2013-07-13 17:49:00,71.3,67.6,30.02,SW,234,0.0,0.0,88,0.00,,,0.00,Wunderground v.1.15,2013-07-13 21:49:00,
2013-07-13 17:54:00,71.2,67.5,30.02,WSW,252,0.0,0.0,88,0.00,,,0.00,Wunderground v.1.15,2013-07-13 21:54:00,
2013-07-13 18:05:00,71.0,67.3,30.02,WSW,251,0.0,0.0,88,0.00,,,0.00,Wunderground v.1.15,2013-07-13 22:05:00,
2013-07-13 18:14:00,70.8,67.4,30.02,WSW,252,0.0,0.0,89,0.00,,,0.00,Wunderground v.1.15,2013-07-13 22:14:00,
2013-07-13 18:19:00,70.8,67.7,30.02,WSW,252,0.0,0.0,90,0.00,,,0.00,Wunderground v.1.15,2013-07-13 22:19:00,
2013-07-13 18:29:00,70.6,67.5,30.03,WSW,252,0.0,0.0,90,0.00,,,0.00,Wunderground v.1.15,2013-07-13 22:29:00,
2013-07-13 18:34:00,70.5,67.1,30.02,WSW,252,0.0,0.0,89,0.00,,,0.00,Wunderground v.1.15,2013-07-13 22:34:00,
2013-07-13 18:44:00,70.5,67.4,30.02,WSW,252,0.0,0.0,90,0.00,,,0.00,Wunderground v.1.15,2013-07-13 22:44:00,
2013-07-13 18:49:00,70.4,67.0,30.03,WSW,252,0.0,0.0,89,0.00,,,0.00,Wunderground v.1.15,2013-07-13 22:49:00,
2013-07-13 18:54:00,70.2,66.5,30.03,WSW,244,0.0,0.0,88,0.00,,,0.00,Wunderground v.1.15,2013-07-13 22:54:00,
2013-07-13 19:04:00,70.1,66.7,30.03,WSW,247,0.0,0.0,89,0.00,,,0.00,Wunderground v.1.15,2013-07-13 23:04:00,
2013-07-13 19:14:00,70.1,67.0,30.03,WNW,297,0.0,0.0,90,0.00,,,0.00,Wunderground v.1.15,2013-07-13 23:14:00,
2013-07-13 19:24:00,70.0,66.9,30.03,WNW,287,0.0,0.0,90,0.00,,,0.00,Wunderground v.1.15,2013-07-13 23:24:00,
2013-07-13 19:34:00,69.9,67.2,30.04,WNW,288,0.0,0.0,91,0.00,,,0.00,Wunderground v.1.15,2013-07-13 23:34:00,
2013-07-13 19:39:00,70.0,67.3,30.03,WNW,288,0.0,0.0,91,0.00,,,0.00,Wunderground v.1.15,2013-07-13 23:39:00,
2013-07-13 19:49:00,69.9,66.5,30.04,NNW,329,0.0,0.0,89,0.00,,,0.00,Wunderground v.1.15,2013-07-13 23:49:00,
2013-07-13 19:54:00,69.8,66.4,30.04,West,269,0.0,0.0,89,0.00,,,0.00,Wunderground v.1.15,2013-07-13 23:54:00,
2013-07-13 20:05:00,69.6,66.5,30.05,West,269,0.0,0.0,90,0.00,,,0.00,Wunderground v.1.15,2013-07-14 00:05:00,
2013-07-13 20:14:00,69.2,66.1,30.05,NNE,17,0.0,0.0,90,0.00,,,0.00,Wunderground v.1.15,2013-07-14 00:14:00,
2013-07-13 20:24:00,68.8,65.7,30.05,WNW,285,0.0,0.0,90,0.00,,,0.00,Wunderground v.1.15,2013-07-14 00:24:00,
2013-07-13 20:34:00,68.7,66.0,30.05,WNW,285,0.0,0.0,91,0.00,,,0.00,Wunderground v.1.15,2013-07-14 00:34:00,
2013-07-13 20:39:00,68.6,65.9,30.05,WNW,285,0.0,0.0,91,0.00,,,0.00,Wunderground v.1.15,2013-07-14 00:39:00,
2013-07-13 20:49:00,68.3,65.6,30.05,WNW,287,0.0,0.0,91,0.00,,,0.00,Wunderground v.1.15,2013-07-14 00:49:00,
2013-07-13 20:59:00,67.9,65.5,30.05,WNW,292,0.0,0.0,92,0.00,,,0.00,Wunderground v.1.15,2013-07-14 00:59:00,
2013-07-13 21:04:00,67.8,65.1,30.05,WNW,292,0.0,0.0,91,0.00,,,0.00,Wunderground v.1.15,2013-07-14 01:04:00,
2013-07-13 21:14:00,67.7,65.3,30.05,NNW,327,0.0,0.0,92,0.00,,,0.00,Wunderground v.1.15,2013-07-14 01:14:00,
2013-07-13 21:19:00,67.6,65.2,30.06,NNW,327,0.0,0.0,92,0.00,,,0.00,Wunderground v.1.15,2013-07-14 01:19:00,
2013-07-13 21:29:00,67.6,65.2,30.06,NNW,327,0.0,0.0,92,0.00,,,0.00,Wunderground v.1.15,2013-07-14 01:29:00,
2013-07-13 21:34:00,67.6,65.2,30.06,NNW,327,0.0,0.0,92,0.00,,,0.00,Wunderground v.1.15,2013-07-14 01:34:00,
2013-07-13 21:44:00,67.6,65.2,30.06,NNW,327,0.0,0.0,92,0.00,,,0.00,Wunderground v.1.15,2013-07-14 01:44:00,
2013-07-13 21:49:00,67.7,65.3,30.06,NNW,327,0.0,0.0,92,0.00,,,0.00,Wunderground v.1.15,2013-07-14 01:49:00,
2013-07-13 21:59:00,67.7,65.6,30.06,NNW,327,0.0,0.0,93,0.00,,,0.00,Wunderground v.1.15,2013-07-14 01:59:00,
2013-07-13 22:04:00,67.7,65.6,30.06,NNW,327,0.0,0.0,93,0.00,,,0.00,Wunderground v.1.15,2013-07-14 02:04:00,
2013-07-13 22:14:00,67.6,65.5,30.06,NNW,327,0.0,0.0,93,0.00,,,0.00,Wunderground v.1.15,2013-07-14 02:14:00,
2013-07-13 22:24:00,67.6,65.5,30.06,NNW,327,0.0,0.0,93,0.00,,,0.00,Wunderground v.1.15,2013-07-14 02:24:00,
2013-07-13 22:34:00,67.5,65.7,30.06,NNW,327,0.0,0.0,94,0.00,,,0.00,Wunderground v.1.15,2013-07-14 02:34:00,
2013-07-13 22:49:00,67.4,65.6,30.06,NNW,327,0.0,0.0,94,0.00,,,0.00,Wunderground v.1.15,2013-07-14 02:49:00,
2013-07-13 22:54:00,67.3,65.5,30.06,NNW,327,0.0,0.0,94,0.00,,,0.00,Wunderground v.1.15,2013-07-14 02:54:00,
2013-07-13 22:59:00,67.2,65.7,30.05,NNW,327,0.0,0.0,95,0.00,,,0.00,Wunderground v.1.15,2013-07-14 02:59:00,
2013-07-13 23:04:00,67.1,65.6,30.06,NNW,327,0.0,0.0,95,0.00,,,0.00,Wunderground v.1.15,2013-07-14 03:04:00,
2013-07-13 23:14:00,67.1,65.6,30.05,NNW,327,0.0,0.0,95,0.00,,,0.00,Wunderground v.1.15,2013-07-14 03:14:00,
2013-07-13 23:24:00,67.2,66.0,30.05,NNW,327,0.0,0.0,96,0.00,,,0.00,Wunderground v.1.15,2013-07-14 03:24:00,
2013-07-13 23:34:00,67.3,66.1,30.05,NW,314,0.0,0.0,96,0.00,,,0.00,Wunderground v.1.15,2013-07-14 03:34:00,
2013-07-13 23:44:00,67.4,66.2,30.05,NNW,336,0.0,0.0,96,0.00,,,0.00,Wunderground v.1.15,2013-07-14 03:44:00,
2013-07-13 23:49:00,67.4,66.2,30.05,NW,319,0.0,0.0,96,0.00,,,0.00,Wunderground v.1.15,2013-07-14 03:49:00,
2013-07-13 23:59:00,67.5,66.3,30.05,NW,319,0.0,0.0,96,0.00,,,0.00,Wunderground v.1.15,2013-07-14 03:59:00,